Location: Arbon
(43.0005°N, 0.7472°E)
Time: 22:36:12
(UTC+00:00)

Explorer 7 - Pass Details

Date: 04 December 2020
Orbit: 484 x 678 km, 50.3° (Epoch: 25 January)

Event Time Altitude Azimuth Distance (km) Brightness Sun altitude
Rises 22:19:12 0° 204° (SSW) 3,006 - -62.4°
Reaches altitude 10° 22:21:51 10° 193° (SSW) 2,084 - -62.8°
Maximum altitude 22:25:53 27° 136° (SE) 1,255 - -63.3°
Drops below altitude 10° 22:29:49 10° 79° (ENE) 2,024 - -63.8°
Sets 22:32:21 0° 67° (ENE) 2,903 - -64.1°
